Location: Unspecified
(43.4354°N, 0.0000°E)
Time: 14:10:34
(UTC+00:00)

A-11 Canister half - Pass Details

Date: 23 June 2019
Orbit: 1514 x 1686 km, 47.2° (Epoch: 24 August)

Event Time Altitude Azimuth Distance (km) Brightness Sun altitude
Rises 17:19:41 0° 295° (WNW) 4,770 12.9 23.4°
Reaches altitude 10° 17:23:07 10° 287° (WNW) 3,759 13.1 22.7°
Maximum altitude 17:31:23 36° 226° (SW) 2,264 10.6 21.3°
Drops below altitude 10° 17:39:28 10° 164° (SSE) 3,667 10.8 19.8°
Sets 17:42:47 0° 156° (SSE) 4,641 11.2 19.3°
